Theta_e
309 311 311 311 309 309 310 311 311 310 312 314 314 316 315 317 319 317 318 316 310 314 320 316 314 313 314 316 313 310 312 311 311 312 313 314 315 316 316 316 316 316 317 317 318 318 318 318 317 316 316 315 316 316 317 320 322 323 324 324 325 324 323 321 320 319 318 317 316 314 313 312 311 311 311 311 311 311 311 311 311 311 311 311 311 311
310 311 309 308 308 308 308 310 311 310 312 315 315 316 316 315 317 316 316 316 311 312 318 317 315 314 313 315 311 309 312 312 310 311 312 313 314 315 315 315 315 314 314 315 315 316 316 315 315 314 314 314 314 315 315 316 319 321 323 323 324 324 324 323 322 320 319 318 317 316 314 313 312 312 311 311 311 311 311 311 311 311 311 311 311 311
310 309 308 307 306 307 309 310 312 311 312 314 313 314 315 314 314 315 316 316 312 311 317 318 315 313 313 314 311 308 311 311 310 311 311 313 313 314 314 313 312 312 312 313 313 314 313 313 313 313 314 314 314 314 314 315 316 318 321 322 324 324 325 325 324 322 320 319 319 318 317 317 316 315 314 313 313 313 312 312 312 312 312 311 311 311
309 308 307 304 304 308 310 311 313 314 312 312 313 313 314 312 311 314 315 314 312 310 314 316 314 314 313 315 314 308 308 309 310 311 311 312 312 312 312 312 311 312 312 312 312 312 313 312 313 313 313 314 314 314 314 314 315 315 317 319 322 324 325 325 326 325 323 321 320 320 319 320 320 319 318 317 315 315 314 313 313 313 313 312 312 312
307 306 304 305 308 311 311 311 313 315 313 311 311 311 312 312 311 313 312 312 313 312 312 314 316 319 314 314 316 310 308 310 310 311 311 311 312 311 311 311 311 311 311 311 311 311 312 312 312 312 312 313 313 314 314 314 315 315 315 316 318 322 325 326 326 326 326 324 321 320 320 321 321 320 320 319 316 315 315 314 314 314 314 314 313 314
307 304 304 309 312 312 312 311 310 313 314 311 309 309 310 311 311 313 313 312 316 314 311 313 317 321 316 312 315 312 312 314 310 309 310 310 311 310 310 311 310 311 310 311 311 311 312 313 312 312 311 312 312 313 315 314 315 315 315 315 316 318 322 325 327 327 327 327 325 322 321 320 320 319 318 317 316 315 315 315 315 315 315 315 316 316
306 304 305 310 312 312 312 311 309 312 315 311 308 308 310 311 311 314 314 313 316 312 309 314 318 318 317 315 314 314 316 318 312 308 309 309 310 310 310 310 310 310 310 311 310 310 312 313 313 312 311 312 312 313 314 315 315 315 315 316 316 316 318 321 325 327 328 328 328 325 322 320 319 319 317 315 316 316 316 316 316 317 317 318 318 319
306 306 307 309 311 312 312 310 309 310 313 311 308 309 311 313 313 314 315 315 315 313 312 316 315 314 317 318 315 315 317 318 313 310 309 309 309 309 309 309 310 310 310 309 308 308 309 312 314 314 313 312 312 313 314 315 315 315 315 315 316 316 317 319 322 326 328 328 328 328 326 323 321 319 317 317 318 318 318 318 318 319 319 319 320 321
305 307 307 307 309 310 308 309 309 309 311 310 308 309 311 313 313 314 316 318 317 314 314 315 314 312 315 318 316 316 317 315 312 311 310 308 308 308 307 308 308 308 308 307 307 307 307 309 312 313 314 313 312 313 314 315 315 315 316 315 315 316 316 318 319 323 326 328 329 329 329 327 325 322 320 319 319 319 319 319 319 320 321 322 323 324
304 305 306 307 308 307 306 308 309 309 310 308 307 310 312 312 313 314 316 320 319 315 314 314 313 312 314 317 317 317 317 313 311 311 309 307 307 307 306 306 306 306 306 306 305 306 306 307 309 311 314 314 313 313 314 315 316 316 316 316 315 315 316 318 319 321 324 327 329 329 329 329 328 327 325 323 322 321 320 321 322 323 324 325 325 324
302 303 304 306 306 305 306 305 305 307 306 306 309 313 314 314 314 315 315 316 317 315 313 312 313 313 314 317 317 315 313 311 310 310 307 306 306 305 305 304 304 305 305 305 305 305 306 307 308 310 312 315 314 314 314 315 317 317 317 316 315 315 316 317 318 320 322 325 328 329 330 330 330 329 328 327 326 324 324 324 325 326 327 327 325 323
302 303 303 303 303 303 306 306 305 304 303 308 314 313 313 312 312 314 313 313 315 315 312 311 312 313 314 317 317 314 311 310 309 308 307 306 305 304 304 303 303 304 304 304 304 305 305 306 307 309 310 312 314 315 315 315 316 317 317 317 316 315 316 317 318 320 322 326 328 329 329 330 330 330 330 329 328 327 327 326 327 328 327 326 325 325
303 302 301 302 302 301 305 308 308 307 307 311 315 314 312 310 309 312 311 310 313 312 309 309 310 311 312 315 316 314 311 309 306 306 306 305 304 303 303 303 303 303 303 304 304 304 305 305 306 307 307 309 311 312 313 314 315 316 317 317 317 317 318 318 319 322 324 326 328 328 329 329 330 330 330 330 329 329 328 328 328 328 327 327 326 326
304 304 301 302 304 301 302 306 308 309 308 310 311 311 312 310 309 310 307 307 311 308 306 307 308 311 313 312 312 312 309 306 304 304 305 303 303 302 302 302 303 303 303 303 304 304 305 305 305 306 306 306 308 309 311 312 313 313 315 316 317 318 318 318 319 320 322 324 326 327 327 328 328 329 328 328 328 328 328 328 328 328 327 326 326 325
304 304 301 301 303 302 302 302 303 306 307 308 308 309 311 310 309 310 308 308 310 307 306 308 309 313 314 310 308 306 304 303 303 304 303 302 302 301 302 302 302 303 303 303 304 304 305 305 305 306 306 306 306 308 309 309 310 310 311 313 314 316 317 318 319 319 320 321 322 323 324 324 324 324 324 325 324 324 324 324 324 324 324 324 324 324
301 302 301 300 300 301 302 301 302 304 307 308 308 309 310 308 308 310 308 308 309 309 309 310 311 312 312 309 307 303 301 302 303 303 302 301 301 301 301 302 302 302 303 303 304 304 305 305 305 306 306 306 306 306 307 308 308 308 309 310 311 313 315 316 318 318 319 319 320 321 321 321 321 321 320 320 319 319 320 321 321 322 322 322 323 323
302 302 302 301 300 300 300 301 302 303 306 308 308 308 306 304 306 309 308 307 308 309 310 311 312 312 309 308 307 304 302 302 302 301 300 300 301 301 301 302 302 302 303 303 304 304 304 305 305 306 306 306 306 306 307 307 308 308 308 308 309 310 311 313 315 316 317 318 318 319 320 320 320 321 320 320 319 319 319 320 320 320 320 320 320 321
300 303 303 301 301 300 298 300 301 299 302 308 308 305 303 302 306 308 308 307 307 308 310 310 312 310 308 308 307 304 302 301 300 300 300 300 300 301 301 302 302 302 303 303 303 304 304 305 305 305 306 306 306 306 306 307 307 308 308 308 308 308 309 310 311 312 314 315 316 316 317 318 318 318 319 319 319 319 319 319 319 319 318 318 319 319
298 302 304 300 300 300 298 301 303 300 301 305 304 303 303 304 307 307 307 307 306 306 307 308 308 307 308 308 306 304 301 300 300 300 300 300 300 301 301 302 302 302 302 303 303 303 304 304 305 305 305 305 306 306 306 306 307 307 308 308 307 307 307 308 309 309 310 312 314 315 315 315 315 316 316 316 317 317 317 317 317 317 317 317 318 318
297 300 303 301 299 299 300 303 304 302 301 302 302 302 304 306 306 305 305 305 306 305 305 306 306 307 310 310 305 301 300 299 299 300 300 300 300 301 301 301 302 302 302 302 302 302 302 303 304 304 304 305 305 305 305 306 306 307 307 307 307 307 307 307 308 308 308 309 312 315 316 315 314 314 315 315 315 315 315 316 316 316 316 316 316 316
299 299 301 302 301 300 302 302 301 301 302 302 302 302 303 304 304 304 304 305 306 305 304 304 305 305 307 307 302 299 299 299 299 299 299 300 300 301 301 301 301 301 301 301 301 301 301 302 303 304 304 304 305 305 305 305 306 306 306 307 307 307 307 308 308 308 308 307 309 313 316 317 316 315 314 313 314 314 314 315 315 315 315 315 315 316
301 299 300 302 302 301 302 299 297 298 300 301 302 302 302 302 302 303 303 303 304 303 302 302 303 304 304 302 299 298 298 298 299 299 299 300 301 301 301 301 301 300 300 300 300 300 300 300 301 302 303 303 304 304 305 305 305 305 306 306 306 307 307 308 308 308 308 308 308 310 313 316 318 318 316 314 313 313 313 314 314 314 314 315 315 315
299 298 300 303 300 299 299 296 293 294 299 302 301 301 302 301 301 302 302 301 301 300 301 301 301 302 302 299 297 297 298 298 299 299 299 300 301 301 302 302 301 300 300 300 300 300 299 299 300 301 301 302 302 303 304 304 305 305 305 305 306 306 307 307 308 308 308 307 308 309 310 312 314 317 318 317 316 314 313 313 313 313 313 313 313 313
298 298 301 302 300 299 299 297 294 294 298 302 301 300 301 300 300 300 300 301 300 300 301 301 301 302 300 297 296 297 298 299 300 300 300 301 301 301 302 302 301 300 300 300 299 299 299 299 299 299 300 300 301 301 302 303 304 304 305 305 305 306 306 307 307 308 308 308 308 308 309 310 311 313 315 318 318 317 316 314 314 314 314 314 314 313
299 298 300 302 303 304 302 301 300 297 298 300 300 299 300 299 300 300 299 300 301 300 301 301 302 303 300 298 297 298 298 299 300 300 300 301 301 301 302 302 301 300 300 299 299 298 298 298 299 299 299 299 299 299 300 301 302 303 304 304 304 305 306 306 307 307 308 308 308 308 308 309 310 310 311 314 317 318 318 317 316 315 315 316 316 316
300 298 299 302 303 303 302 301 301 299 298 299 299 299 298 299 300 300 300 300 300 300 300 301 302 301 299 298 298 298 298 299 300 300 300 301 301 301 301 301 301 300 299 298 298 298 297 297 298 298 298 298 298 298 298 299 300 302 303 304 304 304 305 306 306 307 307 308 308 308 308 308 309 310 310 310 312 315 318 318 318 317 317 317 318 319
299 297 297 300 301 301 300 299 298 298 299 299 299 298 298 299 299 300 300 299 299 299 299 299 300 299 298 298 298 298 299 300 299 299 300 300 300 300 301 301 300 299 298 297 297 297 296 296 297 297 298 298 297 297 297 298 299 300 302 303 304 304 304 305 306 307 308 308 308 308 308 308 309 310 310 310 309 311 314 316 316 317 317 317 318 319
300 298 295 296 300 300 298 298 298 299 299 298 298 298 298 298 298 299 298 298 298 298 298 299 299 298 298 298 298 298 299 299 299 299 299 300 300 300 300 301 300 298 296 296 295 295 295 295 295 296 297 297 297 297 297 297 298 298 300 302 303 304 304 304 305 306 307 308 308 308 308 308 309 310 310 309 309 309 311 313 314 314 315 316 316 317
298 298 295 295 299 298 297 299 299 298 298 298 298 299 298 298 298 298 298 297 298 298 298 299 299 298 298 297 298 298 299 299 299 299 299 299 298 299 300 300 299 296 295 294 294 294 294 294 295 295 296 297 297 297 296 296 297 297 299 301 302 304 304 304 305 306 307 308 308 308 308 308 309 309 309 309 309 309 310 311 312 312 312 313 314 315
296 298 297 296 297 297 298 299 298 298 299 298 298 298 297 297 296 297 297 297 297 297 297 298 297 297 297 297 298 298 298 299 298 298 298 297 297 298 300 299 296 294 293 293 293 293 293 294 295 296 296 297 297 296 296 296 296 296 297 299 301 303 304 304 304 305 306 308 308 308 308 308 309 309 309 309 309 309 309 310 311 311 311 311 312 313
296 298 298 297 297 297 298 299 299 299 299 298 298 298 296 296 296 296 296 296 297 298 298 296 296 296 297 297 297 297 297 298 297 298 297 295 295 298 299 296 293 292 292 292 293 293 294 294 295 295 296 296 296 296 296 295 295 295 296 298 300 301 303 304 304 305 306 307 309 309 308 308 309 310 310 309 309 309 309 310 310 311 311 311 311 312
297 298 298 298 298 297 298 299 299 299 298 297 298 299 300 299 298 298 299 298 298 299 298 297 297 297 296 295 295 295 296 297 297 296 295 293 295 297 296 293 291 291 291 292 293 293 293 294 294 294 295 295 295 295 295 294 294 294 295 297 299 300 302 303 304 304 305 307 308 309 309 308 309 310 310 309 309 309 309 310 310 310 310 311 311 312
298 298 298 298 299 298 298 299 298 298 298 297 297 298 299 298 298 299 299 298 298 298 298 298 298 297 294 294 294 295 295 296 296 294 293 293 295 295 293 291 291 291 291 292 292 292 292 293 293 293 293 293 293 293 293 294 293 293 294 296 298 299 301 302 303 304 305 306 308 309 309 308 309 310 310 309 309 309 309 309 310 310 310 311 311 311
297 298 298 299 299 299 299 299 298 298 300 299 299 299 298 297 298 299 299 298 298 297 297 297 296 294 293 294 294 294 295 295 293 291 291 293 294 293 291 290 291 291 291 292 292 291 292 291 292 292 292 292 292 292 292 292 293 292 293 294 297 299 300 301 303 303 304 305 306 308 309 308 308 309 309 309 309 309 309 309 309 309 309 310 310 310
297 297 298 299 298 298 300 299 298 301 302 300 299 299 297 297 299 299 298 298 297 295 294 294 293 293 293 293 293 294 294 292 290 290 292 293 292 291 290 291 291 291 291 291 291 291 291 291 290 290 290 290 290 290 291 291 291 291 292 294 296 298 299 301 302 303 303 304 305 307 308 308 308 308 308 309 309 308 309 309 309 309 309 309 309 310
296 297 297 299 298 298 299 298 298 300 300 299 299 298 297 298 299 299 299 298 295 292 292 292 292 292 292 292 293 293 291 290 289 290 292 292 291 290 290 290 290 291 291 290 290 290 290 290 290 289 289 289 289 289 290 290 290 291 291 293 295 298 299 300 301 303 303 304 305 306 307 307 307 307 307 307 308 308 308 308 308 308 308 309 309 310
295 296 297 298 298 297 298 299 298 298 299 299 298 297 296 297 298 298 299 298 294 291 291 291 291 291 291 291 291 291 289 289 289 290 290 290 290 289 290 290 290 290 290 290 289 289 289 289 288 288 288 289 289 289 290 290 290 291 292 293 295 297 299 299 300 302 303 303 304 305 306 306 306 306 305 306 307 307 308 308 307 308 308 309 310 311
296 296 297 298 298 298 298 298 297 296 299 300 298 295 294 295 295 295 297 298 293 290 290 290 290 291 290 290 290 289 289 289 289 289 289 289 289 289 289 289 289 289 289 289 288 288 288 288 287 288 288 289 289 289 290 290 290 291 292 293 295 297 298 299 300 301 302 303 303 303 305 306 305 305 304 305 306 306 306 307 307 308 308 309 310 310
296 296 297 297 298 298 296 295 295 295 297 299 298 295 293 294 294 294 296 298 293 289 289 290 289 289 289 289 289 288 288 288 288 289 289 289 289 289 288 288 288 288 288 288 287 287 287 287 287 287 288 288 289 289 289 290 290 290 291 293 294 296 298 298 299 299 301 302 302 303 304 305 306 304 304 304 304 305 306 306 307 307 308 309 309 310
294 295 297 296 297 297 295 294 294 294 296 298 297 294 293 294 295 294 296 297 293 289 289 289 289 289 289 289 288 288 288 288 288 288 289 288 288 288 287 287 287 287 287 287 287 287 287 287 287 287 287 288 288 288 288 289 289 289 290 291 293 295 297 298 298 299 300 301 302 302 303 304 305 304 303 303 303 304 305 306 306 307 308 308 308 308
293 294 294 294 295 295 294 295 293 293 296 297 295 293 292 293 294 295 296 295 291 289 290 289 289 289 288 288 288 288 288 289 288 288 288 288 287 287 287 287 287 287 287 287 287 287 286 286 286 286 287 287 287 287 287 288 288 289 289 289 291 293 296 297 298 298 300 301 301 301 302 304 305 304 303 302 302 303 304 305 306 307 307 308 308 307
292 292 292 292 293 293 292 293 293 293 295 294 292 292 292 292 294 295 294 291 289 289 290 289 289 289 288 288 288 288 288 288 288 288 288 287 287 286 286 286 286 286 286 286 286 286 286 286 286 286 286 287 286 286 286 287 287 288 288 289 289 291 294 296 297 298 299 300 301 301 301 302 304 303 302 301 301 303 303 304 305 306 306 307 307 307
293 293 293 293 293 292 291 292 293 295 295 292 292 294 293 292 294 294 291 289 289 289 289 289 289 288 288 288 288 288 288 288 288 287 287 286 286 286 286 285 285 285 285 285 285 286 285 285 285 285 286 286 286 286 286 286 286 287 288 288 289 290 292 295 297 298 298 300 301 300 300 301 302 301 301 301 301 301 302 303 304 305 305 305 305 305
292 293 295 294 293 293 293 293 293 295 294 292 292 294 293 292 292 291 289 289 289 289 289 289 289 288 288 288 288 288 288 288 287 287 286 286 286 285 285 285 285 285 285 285 285 285 284 284 284 284 284 285 285 285 285 285 286 286 287 288 289 289 291 294 296 297 298 299 300 300 299 300 300 300 300 300 300 300 301 302 303 304 304 303 303 304
292 292 294 293 293 293 293 293 293 292 292 292 291 291 291 291 291 290 289 289 289 289 289 289 288 288 288 288 288 288 288 287 287 287 286 286 285 285 284 284 284 284 284 284 284 284 283 283 283 283 283 283 284 284 284 285 285 285 286 287 288 289 291 293 295 297 298 299 299 299 298 299 299 298 298 298 299 299 300 301 302 302 303 302 302 302
291 290 290 291 292 291 291 292 291 291 291 292 291 291 291 291 291 290 289 289 289 289 289 289 288 288 288 288 288 288 288 287 287 286 286 285 285 284 284 284 284 284 284 284 284 284 283 283 283 283 283 283 283 283 283 284 284 285 285 286 287 288 290 292 294 296 297 298 299 298 298 297 297 296 296 297 297 297 298 299 301 301 302 301 300 300
290 290 290 291 291 291 291 291 290 290 291 291 291 291 291 291 290 290 289 289 289 289 289 288 288 288 288 288 288 288 288 287 286 286 286 285 284 284 283 283 283 283 283 284 284 283 283 283 283 284 283 283 283 283 283 283 283 284 285 286 287 287 288 290 293 295 296 297 298 297 297 296 296 295 295 296 296 296 297 298 299 300 301 301 300 298
290 289 289 290 290 290 290 290 290 290 290 290 290 290 290 290 290 289 289 289 289 288 288 288 288 288 288 288 288 288 287 287 286 286 285 284 284 283 283 283 283 283 283 283 283 283 283 283 283 283 283 283 283 283 283 283 283 284 285 286 286 286 286 288 291 293 295 296 296 296 296 295 294 294 294 295 295 296 296 297 297 299 300 300 300 298
289 288 289 289 289 289 289 289 289 289 289 289 289 290 289 289 289 289 289 289 288 288 288 288 288 288 288 288 288 288 287 287 286 286 285 284 283 283 283 283 283 283 283 283 283 283 283 283 283 283 283 283 283 282 282 282 282 283 284 285 286 285 285 286 289 292 294 295 295 296 295 294 293 293 293 294 294 295 295 296 296 298 298 298 298 297
288 289 288 288 289 289 289 289 289 289 289 289 289 289 289 289 289 288 288 288 288 288 288 288 288 288 287 288 288 287 287 287 286 286 285 284 284 284 283 283 283 283 283 283 283 283 283 283 283 282 282 282 282 282 282 282 282 282 284 285 285 285 285 285 287 290 293 294 294 295 294 293 292 292 292 293 293 294 294 293 294 295 295 295 294 292
288 288 288 288 289 289 289 289 289 288 288 288 289 289 289 289 288 288 288 288 288 288 288 288 288 287 287 287 287 287 288 287 287 286 285 284 284 284 283 283 283 283 283 283 283 283 283 283 282 282 282 282 282 282 282 282 282 282 283 284 285 285 285 285 286 288 291 293 293 293 293 292 291 291 291 292 292 292 292 292 291 291 291 291 291 289
Wind_Speed
5 5 4 2 2 3 2 2 3 3 2 4 4 3 2 1 2 4 5 4 4 3 3 4 4 4 5 7 11 19 20 17 17 16 17 20 21 21 21 21 20 19 18 16 15 16 16 16 17 19 21 22 22 21 21 21 23 26 29 32 33 32 31 31 33 34 34 34 34 34 34 34 33 32 31 32 32 32 31 31 31 30 29 28 28 28
5 5 1 1 3 3 1 2 4 4 4 4 3 3 3 2 3 4 4 5 5 4 4 6 7 6 6 6 10 15 12 10 13 14 15 18 19 20 20 21 22 22 20 18 17 16 17 18 19 21 23 23 23 23 22 22 22 22 24 27 31 32 31 31 32 34 35 36 35 34 33 32 31 31 32 32 32 32 32 32 32 31 30 30 30 30
5 4 3 4 3 1 2 3 6 6 5 4 3 3 2 2 3 5 4 5 5 3 4 7 6 7 8 6 8 9 7 7 12 12 11 13 15 18 20 22 25 26 26 26 25 25 25 25 25 25 25 24 24 23 23 23 23 23 23 24 26 30 32 31 31 32 34 36 35 34 33 32 32 32 31 32 32 32 33 34 33 33 33 32 33 33
3 2 6 5 1 4 5 5 6 6 5 4 3 4 0 3 2 2 4 6 5 1 3 6 4 5 6 6 6 6 8 9 12 14 13 13 14 18 21 23 25 27 30 32 33 33 33 33 31 29 27 26 25 24 23 23 23 24 24 24 24 26 30 32 32 31 31 33 34 35 34 33 33 33 33 33 33 33 34 35 34 34 34 34 34 34
3 3 7 4 4 5 5 6 6 5 4 3 3 4 1 4 1 3 4 6 5 2 2 4 4 3 5 7 6 7 10 10 13 17 19 20 20 22 26 29 29 29 31 34 37 38 37 36 34 32 30 28 25 24 23 22 23 25 24 24 24 24 26 29 31 31 31 32 33 34 35 35 36 36 36 36 36 35 35 34 33 33 32 32 32 31
3 6 6 5 6 6 6 5 4 4 3 3 1 1 3 4 3 5 5 4 4 4 4 5 4 4 5 7 6 6 8 9 11 14 18 24 27 29 31 32 34 34 35 35 36 38 37 35 33 30 29 27 26 24 22 22 24 25 24 23 23 24 24 25 28 30 32 33 33 34 35 37 37 37 37 37 35 34 33 32 31 29 28 28 28 28
3 7 6 6 6 7 7 4 3 3 4 2 1 2 3 2 2 4 3 3 2 2 4 4 4 3 5 6 6 5 7 8 9 11 16 25 30 32 33 33 35 36 37 38 38 40 40 37 34 31 28 26 25 24 22 22 23 23 23 22 22 23 23 24 25 28 32 33 33 34 35 36 37 37 36 35 34 34 33 31 30 29 28 28 28 27
3 7 9 7 6 6 5 4 4 3 5 1 2 1 1 1 2 1 2 3 1 1 4 5 3 1 3 4 6 6 6 7 11 12 16 24 30 33 34 35 35 35 35 38 41 44 44 43 41 36 30 26 24 23 22 23 22 22 21 21 21 21 22 22 24 26 29 31 33 33 34 35 36 37 36 35 34 34 33 32 31 31 30 29 29 29
2 5 7 7 6 5 3 2 3 3 3 1 3 1 1 1 1 2 4 2 1 2 4 6 3 2 2 5 6 5 5 8 12 11 12 20 28 31 33 35 36 37 38 39 41 43 44 45 44 42 35 28 24 21 21 21 21 20 20 20 20 20 20 21 23 26 28 29 31 33 34 35 35 36 35 34 35 35 35 34 33 32 31 30 30 29
1 2 3 3 4 3 2 4 3 2 1 4 3 2 2 4 3 3 4 1 3 4 2 5 4 2 3 5 5 4 6 7 9 8 9 17 25 29 32 36 37 40 41 41 42 43 43 43 44 43 38 31 26 22 18 18 18 19 19 19 19 18 18 20 22 25 28 29 30 32 33 34 34 34 34 34 35 35 35 35 34 32 31 29 27 26
2 2 2 3 4 3 4 3 1 1 3 4 4 4 3 5 4 3 3 3 5 3 3 4 4 2 1 4 3 0 3 5 6 7 10 16 24 30 33 35 37 39 40 41 43 43 43 41 40 41 38 34 30 24 19 17 17 18 16 16 17 16 17 19 21 24 26 28 30 31 32 32 33 33 34 35 34 33 32 33 31 29 29 28 26 26
6 6 3 2 7 7 2 2 4 3 3 3 3 4 3 4 4 4 4 4 4 2 5 4 3 2 2 3 4 3 2 6 6 6 8 12 21 29 33 35 36 38 39 41 43 44 44 42 41 40 40 38 34 30 26 21 20 19 16 14 14 13 15 17 19 22 24 26 28 29 29 30 29 30 32 34 33 31 31 31 29 29 29 29 29 29
5 3 5 5 8 14 7 1 5 6 7 5 3 4 4 2 4 3 4 2 1 3 4 5 4 2 2 5 5 5 6 7 6 7 8 11 21 29 32 34 36 37 39 42 43 44 44 44 43 42 41 40 38 36 34 29 26 23 21 17 14 13 14 15 17 19 21 22 24 24 25 25 25 26 28 30 29 28 29 30 30 30 30 30 31 32
4 3 9 7 6 13 8 2 3 4 5 5 3 3 3 3 3 1 2 2 1 4 5 4 4 1 3 3 2 2 4 6 9 13 13 16 24 28 30 33 38 41 42 44 44 45 45 45 45 44 43 41 39 39 37 35 33 30 27 24 20 17 16 16 17 18 18 19 20 21 22 23 23 23 24 26 27 27 27 29 30 31 32 32 33 32
2 2 8 6 5 10 7 2 0 1 3 3 1 4 3 3 3 2 2 1 2 3 5 4 3 1 2 0 2 2 2 7 14 20 23 27 31 32 33 37 41 44 45 45 46 46 45 45 46 45 43 41 39 38 38 37 38 36 33 30 26 23 20 18 17 17 18 18 19 20 20 21 21 22 22 23 24 24 25 27 29 30 31 31 31 30
3 1 5 4 4 6 6 4 2 1 2 2 1 3 2 1 2 2 2 3 1 1 3 2 0 3 2 1 2 5 9 15 21 26 30 32 35 36 37 39 41 42 44 46 46 46 46 46 45 45 44 42 39 37 37 37 37 38 37 34 31 28 24 21 19 18 18 17 17 19 19 19 20 21 22 22 22 23 24 25 27 28 29 29 30 30
3 2 5 6 4 5 8 7 4 4 1 1 3 2 1 1 2 2 1 1 3 2 2 1 1 4 3 2 4 9 13 18 22 25 28 29 33 35 35 37 39 40 42 43 44 45 46 46 46 45 45 43 40 37 36 35 35 36 37 35 34 32 29 25 22 20 19 19 18 18 19 20 21 22 23 24 24 25 25 26 28 28 29 30 30 30
3 3 4 5 4 7 10 7 5 9 6 2 3 2 2 1 2 3 2 2 4 1 3 2 1 4 4 2 6 12 16 18 19 22 27 31 35 35 34 36 39 40 42 42 44 46 47 47 47 45 44 42 39 36 34 33 33 33 34 35 34 33 31 30 28 25 23 22 22 21 21 21 21 23 24 25 26 27 28 29 29 30 31 31 31 32
2 2 4 2 2 8 10 4 4 11 11 5 1 1 1 3 2 2 2 2 2 0 3 4 2 2 1 1 6 12 14 15 17 20 23 26 29 31 34 38 41 42 43 44 45 46 46 47 47 45 44 42 39 36 33 32 31 30 31 32 32 32 31 30 29 29 28 26 25 24 24 25 24 25 26 27 28 29 31 32 32 33 33 33 34 34
2 2 3 5 4 5 5 5 2 6 8 5 3 3 2 2 1 1 1 1 1 1 2 3 3 2 3 2 6 11 10 11 14 15 16 22 27 28 31 36 39 41 41 42 43 44 45 47 46 46 45 44 42 40 38 36 34 32 32 31 30 31 31 30 29 29 29 29 28 26 25 26 27 27 28 29 29 31 32 33 34 35 36 36 37 37
2 3 2 6 7 3 2 3 1 2 5 5 5 5 5 3 2 2 1 1 3 2 0 1 3 4 5 0 7 10 9 10 12 11 13 23 30 30 29 32 36 38 39 41 43 44 46 47 47 46 46 45 44 43 42 41 39 37 35 33 31 30 30 30 30 30 30 29 29 28 27 26 27 27 29 30 30 32 33 33 34 35 36 37 38 38
1 2 1 3 5 4 2 3 1 2 2 4 4 3 3 3 3 4 2 3 2 2 2 2 2 6 4 3 7 8 9 12 15 13 14 23 30 32 32 31 32 35 38 40 43 44 47 48 48 48 48 48 47 46 45 44 43 41 39 37 34 31 30 29 29 29 29 29 28 28 28 27 27 27 27 28 29 30 31 32 33 35 36 37 37 37
2 2 2 1 2 2 5 5 3 1 0 5 4 2 3 2 4 4 1 3 2 1 0 1 1 5 3 5 9 10 12 15 19 18 17 21 27 31 35 34 33 34 36 40 42 44 46 48 48 49 49 50 50 50 49 48 46 45 43 42 39 35 32 30 28 28 28 29 28 26 26 26 27 27 27 27 27 28 29 30 31 32 33 35 35 35
2 3 3 3 4 4 5 5 5 3 3 5 3 2 4 2 1 3 3 1 0 1 1 1 1 5 3 7 14 17 18 18 20 20 20 21 24 29 33 35 36 36 36 40 43 44 47 48 49 50 51 52 52 53 52 51 50 48 46 45 43 40 36 33 31 29 28 28 28 26 25 25 26 27 27 27 27 27 28 28 29 29 30 31 32 32
2 1 2 3 4 5 6 6 5 5 5 3 2 3 4 2 2 1 1 1 0 2 3 2 2 6 3 7 15 18 17 17 19 21 22 22 23 26 30 32 36 39 39 41 43 46 48 49 49 51 52 53 53 54 55 54 52 51 49 47 46 44 41 37 35 32 30 29 28 28 26 24 26 27 27 27 27 27 28 28 28 28 28 29 29 29
1 1 2 4 3 1 2 2 3 4 4 2 3 5 4 2 2 2 1 0 1 1 2 3 4 7 5 7 12 14 13 13 18 23 23 23 23 25 27 28 33 39 42 43 44 45 48 49 49 50 51 52 53 54 55 55 54 53 51 49 48 47 45 41 38 35 34 32 30 29 27 25 25 27 28 28 27 27 27 28 28 28 27 27 27 26
2 2 1 5 5 4 4 4 4 4 4 4 6 7 4 2 1 2 1 2 2 1 2 5 7 9 10 8 10 13 12 11 16 21 23 25 26 26 26 25 28 36 42 45 46 47 48 50 50 51 51 52 53 55 55 55 55 54 53 51 50 49 48 45 41 38 36 35 33 32 30 27 26 26 28 29 29 28 28 27 28 28 27 27 26 25
3 3 2 4 3 3 3 5 5 4 4 5 6 7 5 4 2 2 2 4 2 1 4 6 5 6 8 8 9 12 11 10 14 20 22 25 27 27 26 24 27 34 40 44 48 49 49 49 50 53 53 53 54 55 56 56 55 54 54 53 51 50 50 49 44 40 38 37 36 34 32 30 28 26 27 29 29 29 29 28 28 28 27 27 26 24
4 1 1 2 3 4 5 6 6 4 4 4 5 7 7 6 4 5 6 7 4 3 7 8 6 8 9 7 8 11 13 13 15 19 22 27 30 28 25 24 26 34 39 42 47 49 50 50 50 52 53 53 55 56 57 57 56 55 54 53 52 51 51 50 48 44 40 38 37 36 34 33 31 28 27 29 29 29 28 29 28 27 27 26 25 22
3 1 2 0 5 6 6 7 6 4 4 4 6 8 7 7 7 7 8 7 6 8 11 10 11 12 8 4 7 14 19 18 18 21 24 30 34 30 25 24 28 35 39 41 45 47 49 50 51 51 52 53 54 56 57 58 57 56 55 54 53 52 51 51 50 47 43 39 38 37 36 35 33 30 28 29 31 29 28 28 28 27 27 26 24 21
3 1 2 1 2 5 6 5 4 4 4 5 9 10 6 5 5 5 5 5 5 7 9 7 9 8 4 6 10 16 20 20 18 22 27 32 34 30 26 27 32 38 41 43 44 46 47 50 52 52 52 52 53 54 56 57 58 57 55 54 54 53 52 51 51 49 45 41 39 37 36 36 34 31 29 30 32 31 29 28 28 27 26 24 23 20
2 1 3 2 1 3 4 5 6 5 4 5 9 10 6 2 3 3 4 4 5 5 5 4 4 3 5 10 12 13 17 19 18 21 27 34 34 27 26 31 38 43 45 45 45 46 47 49 50 52 53 53 54 54 55 57 58 58 56 55 54 53 53 52 51 50 47 43 40 37 35 35 34 31 30 31 33 33 30 29 28 27 24 23 21 19
1 1 2 2 2 2 3 5 6 5 5 3 4 5 4 3 3 3 4 4 4 4 2 2 2 3 7 10 9 9 13 17 20 23 28 32 29 24 29 37 43 45 45 45 45 46 47 48 50 51 53 53 54 54 55 56 57 57 57 56 54 53 52 51 50 50 48 45 41 38 34 33 32 31 30 32 34 33 31 29 28 26 23 22 20 18
2 2 1 1 2 3 5 8 6 4 2 3 4 4 4 4 4 3 4 3 1 1 1 2 3 5 7 8 8 9 11 16 24 30 29 25 21 27 37 43 43 43 43 43 45 46 47 49 51 52 54 55 55 55 56 56 56 56 56 55 55 52 51 50 49 49 49 46 42 39 34 31 30 29 29 32 34 34 31 29 27 25 22 20 18 16
2 3 1 1 1 3 4 6 5 2 4 6 5 3 3 4 4 3 1 1 3 4 4 4 5 6 9 11 12 12 14 20 29 30 23 18 21 31 39 40 39 41 42 43 45 47 49 50 52 54 55 56 56 55 55 56 56 56 55 55 54 53 50 49 48 49 49 46 42 40 35 29 27 27 28 31 34 34 32 29 26 23 21 18 16 15
2 2 2 1 2 2 1 1 1 4 7 5 3 3 1 1 1 1 1 3 3 3 4 5 6 8 11 14 14 14 19 25 27 22 16 17 26 33 34 35 37 39 40 43 46 48 50 50 51 52 54 55 55 54 54 54 54 55 55 54 54 53 51 49 47 47 48 46 42 39 35 29 25 25 26 29 32 33 31 28 24 22 20 17 15 14
5 2 1 1 2 1 1 2 2 6 9 4 0 1 1 1 2 0 1 4 3 4 6 5 5 9 12 14 16 19 24 24 18 14 16 24 32 36 35 36 37 38 40 43 45 47 49 50 51 51 52 53 54 53 52 52 52 53 54 54 53 53 52 50 47 46 46 45 43 40 37 32 27 24 25 27 29 31 30 26 23 21 19 16 15 15
7 2 1 0 1 1 0 3 2 4 6 3 2 2 2 4 6 3 1 4 2 5 8 5 4 10 12 13 18 22 22 16 9 11 23 34 39 41 41 42 41 41 43 45 46 48 49 50 51 51 51 52 53 52 51 51 51 52 53 53 52 52 52 50 47 45 45 45 44 41 39 36 30 25 24 26 28 28 27 24 22 21 20 17 17 17
5 3 1 1 2 0 1 3 2 3 6 5 5 3 5 5 4 1 1 3 2 7 11 6 7 12 12 14 19 19 14 9 6 14 30 39 40 40 42 44 45 46 46 47 47 48 49 50 51 51 51 52 53 53 52 52 52 52 53 53 52 51 51 50 48 46 45 45 44 42 39 36 32 27 24 25 27 27 25 23 22 22 21 19 19 19
1 2 2 2 3 3 2 3 3 4 6 5 5 3 4 1 3 2 3 4 3 13 15 9 12 16 15 18 19 12 7 7 11 21 34 38 38 38 39 42 45 46 47 48 48 47 47 49 49 50 51 52 53 54 53 53 53 54 53 53 52 51 50 50 49 47 45 44 44 41 39 35 32 28 24 24 26 26 23 22 22 24 23 22 21 21
2 2 2 2 3 4 5 4 3 4 6 5 4 2 3 1 3 1 4 5 10 18 16 12 15 17 18 20 18 12 14 19 23 30 34 34 35 38 38 39 42 43 44 46 47 47 47 48 48 49 51 52 54 54 54 53 54 55 55 54 53 51 50 51 50 48 45 44 43 41 39 34 31 27 24 24 26 26 23 22 23 25 25 24 23 23
1 1 1 2 2 2 3 3 3 5 5 5 4 1 2 2 2 4 4 8 15 18 15 15 17 18 20 23 22 22 26 29 30 32 33 33 35 37 38 38 40 41 43 44 44 45 47 48 49 49 50 51 53 54 54 54 55 55 55 55 53 51 51 51 50 48 46 44 43 41 39 34 29 26 24 24 26 27 24 23 24 26 27 27 26 25
3 2 2 3 2 1 1 2 3 5 4 4 3 2 2 1 5 7 8 14 16 14 14 17 20 22 24 26 27 28 30 31 32 34 34 35 36 36 36 36 37 39 41 42 43 44 46 47 49 50 50 51 53 54 53 54 55 55 55 55 54 52 51 51 50 49 47 45 43 41 38 34 29 24 23 24 27 28 26 25 26 28 29 29 29 29
4 4 2 2 3 2 3 4 3 3 5 5 2 2 5 10 13 12 13 17 17 13 15 20 23 25 26 27 29 31 31 32 35 36 35 36 36 36 35 35 35 37 38 40 42 43 45 47 49 50 51 52 54 55 54 53 54 56 56 56 54 53 51 50 49 49 48 45 43 41 37 33 28 24 23 24 26 29 28 27 28 30 32 32 32 32
6 7 3 3 5 4 4 7 8 9 10 12 14 17 18 18 15 13 16 19 17 16 19 23 27 28 28 29 31 32 32 34 36 36 36 36 36 35 34 34 34 36 37 39 41 42 45 47 49 50 52 54 56 57 56 54 54 56 57 56 54 54 53 51 49 49 48 45 43 40 36 32 28 25 24 24 26 30 30 29 31 33 34 34 34 34
7 7 2 1 3 4 8 16 20 22 25 27 26 22 19 17 18 21 23 20 18 20 25 27 29 30 30 30 31 32 34 35 36 37 37 36 36 35 35 35 35 35 37 39 41 42 44 47 50 52 54 56 58 58 58 56 55 56 56 55 54 54 54 52 49 48 48 45 42 38 34 31 28 26 25 25 27 30 31 31 32 34 35 36 35 35
6 8 6 4 3 4 6 11 14 17 20 21 21 21 23 27 30 29 24 20 21 25 28 28 30 32 31 31 32 33 35 35 36 37 37 36 36 36 35 36 36 36 37 39 41 42 44 46 50 52 54 57 59 59 59 59 58 57 56 53 52 53 54 53 50 48 47 45 42 37 33 30 28 27 27 27 28 30 31 32 33 34 36 37 37 38
1 2 4 5 6 7 9 14 20 24 25 27 29 31 32 32 29 24 21 22 25 27 29 30 32 32 31 32 32 33 35 36 36 36 36 35 36 36 37 37 37 37 39 40 41 43 44 45 48 51 53 56 58 59 60 60 59 59 56 53 51 52 54 53 51 48 47 45 42 37 33 30 28 28 28 29 30 31 32 33 34 35 37 37 37 40
2 3 4 3 4 6 11 20 26 24 21 24 27 27 26 25 24 23 24 27 28 29 32 35 34 32 31 32 32 32 35 37 36 36 35 35 36 38 38 38 38 38 39 41 42 44 45 47 48 49 52 56 58 58 59 60 60 59 57 54 51 52 54 54 52 49 47 44 41 37 33 30 29 28 29 30 31 32 33 34 35 36 37 37 38 41
7 8 7 3 4 6 10 16 19 12 9 16 22 24 26 27 27 27 29 30 31 33 36 37 36 32 31 31 32 33 35 37 38 36 35 36 38 39 39 39 39 39 39 40 42 44 46 48 49 50 52 56 58 58 59 60 60 59 58 55 52 53 54 54 52 50 47 43 41 37 33 31 30 29 29 31 32 33 34 35 36 37 38 39 40 41
17 16 10 7 9 11 15 23 23 15 15 23 28 29 30 30 30 31 33 35 36 37 37 36 35 33 33 35 36 36 36 38 39 38 38 39 41 41 40 40 39 39 40 40 42 44 46 48 49 50 53 58 60 59 59 60 60 58 57 55 54 54 54 53 52 51 48 43 39 36 33 31 31 30 30 32 33 35 35 36 36 37 37 39 40 40
Wind_Direction
59 62 58 73 346 308 311 40 119 147 94 86 80 67 80 83 302 291 283 300 359 4 285 298 313 297 299 292 296 313 323 331 336 344 347 341 339 338 339 342 342 341 339 334 326 320 323 330 335 340 341 341 339 334 325 311 296 285 277 270 267 265 260 257 255 255 255 253 250 247 245 244 244 244 244 243 243 244 245 247 248 249 249 250 251 252
71 72 52 258 263 258 231 81 87 91 66 67 81 65 38 27 288 276 281 313 4 35 288 309 336 313 295 284 288 307 320 329 336 343 342 338 339 341 346 350 351 352 350 349 345 339 338 339 341 343 345 345 342 340 337 329 320 308 292 278 271 267 264 259 256 256 256 255 253 251 249 248 249 248 248 247 247 248 249 250 251 251 251 252 253 253
58 61 320 291 259 121 66 58 72 79 78 71 70 79 38 341 295 295 305 327 1 34 300 319 340 310 299 293 283 300 320 329 342 351 348 346 348 350 353 354 355 357 357 357 355 353 351 348 346 345 346 347 344 341 339 335 330 320 308 297 283 272 266 263 260 258 257 257 257 256 255 254 254 254 253 254 254 254 254 254 254 254 254 254 254 255
61 27 317 309 119 85 43 33 69 74 63 72 73 82 325 306 344 310 315 332 344 36 284 305 319 310 323 330 304 317 342 341 349 359 4 7 1 356 358 357 358 358 358 357 356 354 351 347 344 343 343 344 343 339 337 335 333 326 317 310 301 286 274 267 264 262 261 260 259 258 258 258 257 257 257 257 255 254 254 254 254 254 255 255 257 258
78 329 320 347 77 88 71 38 60 79 45 36 74 93 290 304 281 244 296 332 344 11 338 340 353 330 349 360 335 333 346 348 357 4 8 10 8 3 1 360 0 1 360 358 356 355 352 348 346 344 342 341 339 338 336 333 332 329 321 314 309 300 288 276 269 266 265 262 260 258 257 256 256 256 255 255 253 252 253 254 255 257 259 260 261 262
46 342 343 46 57 62 83 53 42 105 74 18 59 144 260 263 246 273 316 1 22 0 339 29 38 303 329 359 336 334 346 344 358 9 7 4 4 3 1 1 2 4 5 4 3 2 358 353 347 343 343 341 337 334 331 328 327 326 320 314 309 305 299 288 277 271 267 264 261 260 258 256 255 255 255 255 255 256 258 260 262 264 264 264 264 264
22 0 21 65 63 58 73 55 26 104 94 45 193 203 258 213 197 296 339 51 70 301 326 53 104 266 329 344 318 331 338 335 357 8 3 0 1 1 1 3 5 8 11 11 12 11 7 4 357 348 343 341 338 332 325 321 322 321 315 310 306 304 302 298 289 277 271 268 265 263 261 259 258 257 256 257 260 263 265 266 266 266 266 266 266 267
355 6 25 35 46 60 58 39 18 70 99 94 227 186 333 66 82 347 78 93 186 244 345 18 99 143 333 302 294 328 346 353 4 1 356 358 359 1 4 7 11 14 13 11 10 11 11 11 8 1 351 343 339 333 323 317 317 318 312 305 300 298 299 300 296 286 276 272 269 267 266 264 263 262 260 261 264 266 266 267 267 267 268 268 270 271
19 17 24 25 36 49 33 319 321 17 88 246 281 305 332 41 94 87 92 112 314 54 355 339 36 84 300 289 306 347 28 16 360 351 348 354 358 3 6 9 12 13 10 8 8 9 11 12 12 11 5 354 345 338 329 321 318 316 310 302 294 291 293 295 296 292 284 278 273 270 268 268 268 268 267 267 267 266 267 268 268 269 270 272 275 277
10 358 11 40 45 26 311 277 281 37 349 277 320 358 44 52 51 64 73 88 40 53 324 321 15 67 287 294 319 9 44 16 346 340 346 354 1 5 6 7 8 8 8 7 7 8 10 11 11 14 13 7 358 349 339 332 328 321 309 300 291 286 288 290 291 292 289 284 277 272 270 270 271 272 272 270 268 267 268 269 270 272 274 276 278 281
338 351 24 55 23 312 272 300 309 138 272 293 8 17 29 30 27 41 33 60 55 12 274 318 4 67 340 289 283 25 68 27 347 342 348 355 3 5 6 6 6 6 5 4 5 6 8 9 11 14 15 13 9 2 353 348 345 336 318 298 290 288 289 289 290 292 291 287 280 275 273 273 274 275 274 273 272 271 271 271 273 275 276 277 278 280
17 32 13 0 15 1 334 10 16 16 1 31 57 41 39 6 8 25 359 36 67 286 266 313 338 89 99 265 263 265 37 31 8 350 343 349 1 4 5 5 4 3 3 2 3 3 5 6 8 11 12 13 14 10 3 359 355 350 337 313 295 294 299 298 296 295 294 292 287 282 280 278 278 277 275 275 275 275 274 274 275 275 275 278 281 282
21 38 347 331 23 24 20 25 6 2 18 38 51 53 64 20 8 19 347 15 91 253 268 318 348 89 198 251 272 315 359 8 0 1 358 360 6 5 4 3 1 1 2 1 1 1 1 2 2 3 5 8 12 12 8 4 0 355 349 337 321 314 312 306 301 299 297 295 292 290 287 285 284 280 278 278 278 278 277 276 276 275 276 279 281 282
346 332 4 1 7 17 26 69 20 347 359 15 44 76 98 95 60 350 315 0 302 272 282 318 14 38 281 277 255 305 351 354 4 16 22 20 12 5 1 1 1 1 0 359 358 358 358 358 359 359 0 2 6 10 10 8 6 3 358 350 340 333 326 314 304 299 296 295 294 292 290 288 285 281 279 278 279 279 278 277 277 277 278 278 279 280
30 337 5 10 334 358 19 52 310 256 341 343 138 106 111 131 120 187 214 142 239 276 299 335 39 154 250 101 148 154 2 10 20 23 22 16 8 3 1 2 1 359 357 356 355 355 356 357 358 358 359 359 0 4 7 7 7 7 5 1 354 345 337 328 319 308 299 294 292 290 287 286 284 281 279 277 276 276 275 275 275 275 276 277 278 278
69 290 313 330 321 359 7 329 320 78 356 324 110 82 57 148 147 149 154 170 191 307 305 327 73 220 223 47 34 28 11 11 19 20 16 9 3 2 2 -0 359 356 354 354 354 354 355 357 358 358 359 359 357 359 3 4 4 4 4 6 5 0 350 338 328 319 311 303 296 291 288 286 284 281 280 279 278 278 276 275 274 274 274 275 276 276
18 295 305 344 358 31 16 339 1 48 338 316 44 37 306 217 142 105 58 357 48 60 286 324 299 296 333 358 353 16 13 9 12 12 10 5 1 2 -0 357 355 353 353 353 353 353 354 356 357 358 359 0 359 358 358 0 0 360 359 0 3 5 2 354 339 325 314 306 299 295 292 290 287 285 284 282 281 280 277 275 273 272 272 272 272 271
352 290 311 11 359 346 355 340 1 29 37 73 47 343 312 39 95 95 81 14 41 82 283 328 288 314 352 344 340 9 16 9 4 1 0 0 360 358 354 353 353 352 352 352 354 355 355 356 357 357 358 359 0 359 357 357 357 356 355 355 355 356 357 357 353 344 332 316 303 294 288 285 282 281 280 279 278 276 273 271 270 270 269 268 268 268
31 310 296 4 309 315 346 15 2 10 29 71 103 310 62 82 47 37 85 47 36 94 307 323 311 321 322 260 352 11 19 12 3 357 355 354 355 353 350 351 352 353 355 356 357 358 358 358 358 359 358 357 358 358 356 354 351 349 349 350 350 349 348 347 348 348 347 339 324 308 296 288 282 277 275 273 273 272 271 271 270 270 270 269 269 269
32 63 303 309 317 313 358 41 25 344 360 25 38 19 47 111 119 18 109 105 91 130 316 333 346 317 236 222 22 22 23 18 7 357 347 343 346 351 352 352 353 355 358 359 360 0 1 1 360 359 360 358 357 356 355 352 349 346 346 346 346 346 345 343 341 340 342 345 341 330 316 304 295 287 282 278 275 273 271 271 271 271 271 272 271 271
2 64 346 315 332 4 37 27 39 316 345 13 28 21 6 356 28 35 21 80 90 102 130 350 329 285 252 169 47 34 25 17 6 353 340 338 342 347 353 356 356 357 359 1 1 2 2 1 -0 358 358 357 355 354 353 351 349 345 344 344 343 343 343 342 340 337 336 339 341 339 332 321 311 302 295 290 285 281 278 276 274 273 272 272 271 272
27 52 48 323 344 23 4 332 343 280 346 53 45 28 23 10 47 61 345 334 47 102 154 163 268 278 283 54 62 48 27 6 356 350 342 341 343 345 351 357 360 359 359 0 1 2 2 2 0 358 356 356 355 353 351 349 348 346 343 342 340 339 340 340 338 335 333 333 336 338 337 330 324 316 308 302 296 291 288 284 281 279 277 275 274 273
91 75 60 306 298 298 288 317 26 281 103 69 53 64 77 50 78 99 288 316 357 9 110 136 216 273 286 67 64 43 21 1 352 351 348 345 346 347 349 353 358 360 360 359 360 0 0 0 0 359 357 355 354 353 351 349 347 346 344 342 339 336 334 334 334 331 328 327 328 332 335 333 329 324 318 312 307 301 296 291 288 285 282 280 278 276
56 64 46 327 304 309 306 333 30 43 63 57 19 41 70 43 80 145 189 194 310 286 322 53 331 267 265 53 42 23 10 359 352 354 353 348 349 350 349 350 354 357 358 359 359 358 358 358 359 359 358 356 354 353 352 350 348 345 344 343 341 337 333 330 329 326 323 320 319 321 326 328 328 326 323 318 314 309 304 298 293 290 287 285 282 279
3 53 73 36 353 351 349 346 352 358 31 55 331 4 38 2 347 14 103 88 236 216 147 135 241 257 261 36 23 7 0 353 349 354 353 348 349 350 348 349 352 354 355 357 357 357 356 356 356 356 356 355 354 353 351 350 348 345 343 343 342 339 334 330 327 324 321 317 313 311 314 319 322 323 323 321 317 313 310 305 299 294 291 288 286 284
46 114 106 98 90 42 319 299 299 333 358 10 318 331 347 346 25 55 48 0 266 294 97 154 235 275 311 19 10 354 351 345 344 350 351 348 349 348 347 348 352 353 353 353 354 354 353 353 352 352 352 353 352 352 351 350 348 345 342 340 342 340 336 332 327 322 320 317 312 307 306 310 314 317 318 320 318 315 312 310 306 301 296 292 290 287
121 79 79 140 150 181 208 238 258 317 321 299 305 311 311 316 92 111 114 224 219 353 310 234 242 278 308 356 2 343 339 339 339 344 346 345 344 345 346 349 352 354 352 351 350 351 350 350 349 348 348 348 349 350 350 349 347 345 342 339 339 339 338 335 329 323 320 317 314 310 307 306 306 308 312 314 316 316 313 311 309 305 301 297 294 292
123 26 2 160 182 222 244 278 285 309 294 274 293 296 283 279 249 162 194 224 187 48 284 252 244 276 303 345 354 332 328 335 335 339 341 339 338 342 346 350 353 353 352 350 348 347 346 346 345 345 345 344 345 346 347 347 346 345 342 340 338 336 337 336 331 325 320 317 314 313 311 306 300 301 306 308 311 314 313 311 309 306 303 299 296 296
117 340 247 173 313 291 274 280 276 277 267 254 269 276 276 277 238 204 228 231 191 197 251 261 287 297 302 330 341 324 321 325 327 333 338 338 338 340 345 350 353 352 351 348 345 343 343 342 342 343 342 342 342 343 343 344 344 343 341 339 337 335 335 336 332 326 321 317 315 314 313 307 300 297 300 303 306 309 310 310 308 305 301 297 295 295
93 227 208 259 318 298 275 272 269 259 262 271 273 268 270 270 247 231 244 236 206 227 249 267 291 292 291 319 331 321 318 319 327 337 344 343 338 337 343 350 352 350 348 346 343 341 340 340 340 340 340 341 341 341 341 341 342 342 339 338 337 335 334 334 332 327 322 318 316 315 312 308 301 296 296 300 302 304 306 307 306 303 299 294 291 290
29 321 283 269 297 296 286 287 290 263 247 274 288 288 292 285 264 253 251 229 213 245 258 265 276 276 302 340 329 322 320 323 337 348 348 341 334 336 345 350 349 347 346 343 341 340 339 339 339 339 338 338 339 339 338 339 339 340 338 336 335 334 333 333 332 329 323 318 317 316 312 308 303 295 294 298 300 302 303 304 304 301 297 291 285 281
25 314 317 347 324 282 273 283 295 296 294 292 290 289 290 269 251 252 243 208 195 235 263 273 271 288 336 332 327 326 325 330 343 353 346 334 331 339 348 347 346 345 342 340 339 338 338 337 336 336 335 335 336 336 336 336 337 337 337 336 334 333 332 332 331 329 324 319 318 315 310 308 304 296 292 296 299 300 302 302 302 300 296 289 281 272
180 268 319 339 298 280 296 295 298 334 1 320 268 254 250 252 252 256 267 250 218 223 265 295 310 328 320 319 329 336 337 340 344 346 336 326 328 343 346 343 342 339 336 336 336 335 335 334 333 332 332 332 333 333 334 334 334 335 335 334 334 333 332 330 329 328 325 320 318 315 308 305 304 300 296 297 299 299 300 300 300 299 295 288 279 267
235 252 278 311 290 312 321 314 329 29 54 245 231 203 212 245 252 250 277 289 250 119 351 301 311 324 323 331 340 338 343 343 334 331 328 325 334 346 342 337 335 332 331 332 332 332 333 332 331 330 330 330 331 331 332 332 332 332 332 332 332 332 331 329 327 327 326 322 319 316 309 302 300 300 299 298 298 297 297 297 297 296 293 287 278 266
266 254 290 325 251 277 303 322 351 6 224 240 256 239 214 212 211 211 224 149 92 47 9 338 329 329 333 337 334 332 338 333 325 325 330 335 341 340 334 330 329 329 329 330 330 330 331 331 331 330 329 328 329 330 331 331 331 331 329 329 331 331 331 329 326 326 327 324 320 318 312 301 296 296 296 295 295 295 293 294 295 292 288 284 275 264
236 240 264 244 216 245 290 344 334 265 260 264 273 286 333 103 138 73 92 181 140 58 4 337 330 329 332 333 331 333 334 327 321 323 330 330 330 330 327 325 326 327 328 328 328 328 328 328 329 328 328 327 327 329 330 330 331 330 327 327 329 330 330 329 327 326 326 324 321 319 313 301 292 291 291 291 291 291 290 291 292 287 282 277 269 261
201 226 262 238 215 204 228 236 254 295 303 314 49 299 355 212 250 312 247 225 165 61 4 330 322 328 329 329 332 336 334 328 322 323 327 325 326 328 327 325 326 325 326 327 327 327 327 327 327 327 328 327 327 329 331 331 331 329 326 326 329 330 330 330 329 327 325 323 321 318 313 305 294 289 288 287 287 286 286 286 285 280 274 267 258 252
202 236 282 244 244 136 313 291 305 314 297 258 196 258 294 272 256 220 211 235 178 29 356 333 309 323 327 330 335 339 338 333 321 320 326 328 328 329 329 328 328 327 326 326 327 327 327 327 327 327 327 327 327 329 331 331 331 329 326 326 328 329 329 330 330 326 324 323 321 317 315 310 300 291 286 283 282 282 282 281 278 272 266 257 248 242
204 260 302 272 276 319 348 283 254 251 264 235 203 251 331 311 252 183 347 252 211 357 349 343 324 327 331 332 335 340 341 334 316 317 323 325 326 328 329 329 330 330 329 328 328 327 328 328 329 328 326 326 326 328 330 330 330 328 327 327 328 329 330 330 328 325 323 322 320 316 314 312 304 295 286 280 277 277 277 275 269 263 257 248 240 234
140 283 267 235 252 252 246 254 230 235 261 245 204 246 322 293 160 78 318 255 310 342 341 341 332 329 330 329 331 337 330 305 300 309 316 320 323 327 329 329 330 330 330 330 330 330 330 331 330 329 327 327 326 328 329 329 328 327 327 328 328 329 330 329 327 324 321 320 319 315 312 311 307 298 288 278 273 272 271 268 260 254 248 240 232 226
21 324 250 220 244 248 243 249 251 250 256 235 201 250 325 147 152 204 245 258 324 330 329 331 326 323 323 322 320 310 298 298 299 304 312 319 323 327 330 331 330 330 330 330 331 332 333 332 332 331 329 328 328 329 330 330 328 326 326 327 327 328 330 328 326 323 319 317 317 314 310 309 306 300 290 276 268 266 265 260 254 248 242 235 227 219
9 337 245 202 214 237 223 227 273 279 249 189 160 84 38 95 193 223 248 311 321 316 315 319 317 317 319 315 309 301 300 304 307 310 316 322 324 326 329 331 330 330 331 332 333 334 334 333 332 332 331 331 330 331 331 331 328 327 326 326 326 328 329 328 326 323 318 316 316 314 310 307 305 300 290 275 264 260 258 253 247 241 235 230 224 215
176 183 239 220 187 147 208 231 280 284 234 159 104 64 105 186 264 269 294 313 310 300 306 312 312 315 316 310 305 304 305 309 313 315 318 321 323 325 327 329 330 330 332 333 334 335 335 333 332 333 333 333 333 333 333 332 329 328 326 325 326 328 328 327 326 323 318 315 315 313 309 305 304 299 290 275 263 257 254 249 242 234 228 224 219 212
187 181 214 230 187 154 181 205 225 232 196 169 160 237 251 273 279 281 298 308 302 295 302 307 307 311 312 307 305 307 308 311 313 314 316 318 321 324 325 327 330 331 332 333 334 336 337 335 334 335 336 337 337 335 335 333 330 328 326 326 328 329 328 326 325 322 318 315 314 312 308 304 301 296 286 274 261 254 250 244 237 230 223 219 217 214
208 191 188 229 219 197 201 230 253 262 255 258 268 275 283 284 276 282 302 303 294 293 301 304 306 309 310 309 307 306 307 308 310 311 313 316 318 321 322 324 327 329 330 331 333 335 337 336 335 335 336 337 338 336 335 334 331 328 327 328 329 329 328 326 324 321 318 315 312 312 308 303 299 291 281 271 259 250 246 240 234 227 220 216 216 215
230 220 205 202 242 275 265 255 259 266 269 273 277 282 287 285 282 294 303 295 284 294 302 302 303 308 309 307 305 304 304 306 307 308 309 313 316 318 319 321 324 326 327 328 330 332 334 334 334 334 334 335 335 335 334 334 332 329 328 328 329 329 329 327 323 320 318 314 311 310 306 301 297 289 277 266 256 248 244 240 235 228 221 217 214 212
254 237 234 232 256 294 273 250 250 259 266 274 282 282 283 286 290 294 295 288 287 296 299 298 302 306 306 303 302 301 301 303 304 304 306 310 313 315 317 319 321 324 326 326 327 329 331 331 331 332 331 332 333 333 332 331 331 330 329 328 328 328 329 328 324 320 317 314 311 308 304 301 296 287 275 262 252 245 240 237 233 228 223 218 212 206
249 228 239 241 238 245 262 267 268 269 272 278 282 282 283 286 291 291 288 288 291 294 295 297 300 302 302 301 299 298 300 301 300 300 304 308 311 313 315 317 319 322 324 325 326 327 328 328 329 329 329 330 331 331 330 329 329 329 328 327 327 328 327 328 326 321 317 315 312 307 303 299 294 285 274 262 252 244 238 234 230 227 224 222 216 207
230 257 238 228 250 260 271 274 273 275 278 276 277 282 286 287 289 290 290 291 292 292 295 298 300 300 299 298 297 297 298 298 298 299 302 305 307 309 310 313 316 320 321 324 326 327 327 327 327 327 327 328 329 329 328 327 327 328 327 326 327 327 326 326 326 323 318 316 314 308 302 297 291 281 270 260 250 243 238 233 229 226 223 220 216 209
224 253 241 229 272 263 254 262 268 273 279 275 279 287 291 291 291 291 291 292 291 293 296 298 299 301 299 296 297 297 296 297 298 299 299 301 303 304 306 309 313 315 318 321 324 325 326 327 326 325 325 327 328 327 327 326 326 326 325 325 326 327 325 324 325 324 320 317 315 310 303 296 288 277 264 254 246 238 231 226 224 222 218 214 209 204
222 236 232 222 246 254 258 266 269 269 270 277 284 288 289 292 292 289 289 291 291 294 298 299 298 299 299 297 298 298 295 296 298 297 295 297 299 300 303 306 309 312 316 319 322 323 324 325 325 324 325 326 326 326 326 325 324 324 324 324 325 326 325 323 323 322 320 317 314 310 304 295 286 273 258 248 241 234 227 221 217 214 212 209 203 198